When you browse on this site, cookies collect data to enhance your experience and personalize the content and advertising you see.
Visit our Privacy Policy to learn more. By continuing to use the site, you agree to this use of cookies and data.
  • In United Kingdom
  • List of Countries
  • For 7 days
  • Water Temperature
  • Weather Map
  • Weather Widgets
  • user-avatar
    Login

    Hourly Weather Pivni

    Today, 20 September, Friday

    Time Temperature Precipitation Wind Pressure Humidity
    00:00 +10°C° 0 mm 2 mps 757 mmHg 61%
    01:00 +9°C° 0 mm 2 mps 757 mmHg 65%
    02:00 +8°C° 0 mm 2 mps 757 mmHg 68%
    03:00 +8°C° 0 mm 2 mps 757 mmHg 70%
    04:00 +8°C° 0 mm 2 mps 757 mmHg 72%
    05:00 +7°C° 0 mm 2 mps 757 mmHg 74%
    06:00 +9°C° 0 mm 3 mps 757 mmHg 69%
    07:00 +10°C° 0 mm 3 mps 757 mmHg 64%
    08:00 +11°C° 0 mm 3 mps 756 mmHg 59%
    09:00 +13°C° 0 mm 4 mps 756 mmHg 53%
    10:00 +14°C° 0 mm 4 mps 756 mmHg 47%
    11:00 +16°C° 0 mm 5 mps 756 mmHg 41%
    12:00 +16°C° 0.1 mm 5 mps 756 mmHg 39%
    13:00 +16°C° 0.1 mm 5 mps 755 mmHg 37%
    14:00 +17°C° 0.1 mm 6 mps 755 mmHg 35%
    15:00 +16°C° 0 mm 6 mps 755 mmHg 36%
    16:00 +16°C° 0 mm 5 mps 755 mmHg 37%
    17:00 +15°C° 0 mm 5 mps 755 mmHg 37%
    18:00 +14°C° 0.1 mm 5 mps 755 mmHg 42%
    19:00 +12°C° 0.1 mm 5 mps 756 mmHg 48%
    20:00 +10°C° 0.1 mm 5 mps 756 mmHg 53%
    21:00 +9°C° 0.1 mm 5 mps 756 mmHg 59%
    22:00 +8°C° 0.1 mm 5 mps 756 mmHg 66%
    23:00 +6°C° 0.1 mm 4 mps 757 mmHg 72%

    Tomorrow, 21 September, Saturday

    Time Temperature Precipitation Wind Pressure Humidity
    00:00 +6°C° 0 mm 4 mps 757 mmHg 73%
    01:00 +5°C° 0 mm 4 mps 757 mmHg 74%
    02:00 +5°C° 0 mm 4 mps 757 mmHg 75%
    03:00 +5°C° 0 mm 4 mps 758 mmHg 77%
    04:00 +4°C° 0 mm 4 mps 758 mmHg 78%
    05:00 +4°C° 0 mm 4 mps 758 mmHg 79%
    06:00 +5°C° 0 mm 5 mps 758 mmHg 73%
    07:00 +6°C° 0 mm 5 mps 758 mmHg 67%
    08:00 +7°C° 0 mm 6 mps 759 mmHg 61%
    09:00 +9°C° 0 mm 6 mps 759 mmHg 54%
    10:00 +10°C° 0 mm 6 mps 759 mmHg 46%
    11:00 +13°C° 0 mm 6 mps 759 mmHg 39%
    12:00 +14°C° 0 mm 6 mps 759 mmHg 35%
    13:00 +14°C° 0 mm 6 mps 758 mmHg 31%
    14:00 +15°C° 0 mm 6 mps 758 mmHg 27%
    15:00 +15°C° 0 mm 5 mps 758 mmHg 28%
    16:00 +15°C° 0 mm 4 mps 758 mmHg 30%
    17:00 +14°C° 0 mm 4 mps 758 mmHg 31%
    18:00 +13°C° 0 mm 4 mps 758 mmHg 36%
    19:00 +12°C° 0 mm 3 mps 758 mmHg 41%
    20:00 +11°C° 0 mm 3 mps 758 mmHg 46%
    21:00 +11°C° 0 mm 3 mps 758 mmHg 51%
    22:00 +12°C° 0 mm 4 mps 758 mmHg 56%
    23:00 +12°C° 0 mm 4 mps 757 mmHg 61%

    Day after tomorrow, 22 September, Sunday

    Time Temperature Precipitation Wind Pressure Humidity
    00:00 +12°C° 0 mm 4 mps 757 mmHg 66%
    01:00 +12°C° 0 mm 5 mps 757 mmHg 70%
    02:00 +12°C° 0 mm 5 mps 757 mmHg 75%
    03:00 +12°C° 0 mm 5 mps 757 mmHg 73%
    04:00 +12°C° 0 mm 5 mps 757 mmHg 72%
    05:00 +13°C° 0 mm 5 mps 757 mmHg 70%
    06:00 +13°C° 0 mm 6 mps 757 mmHg 67%
    07:00 +14°C° 0 mm 6 mps 757 mmHg 63%
    08:00 +15°C° 0 mm 6 mps 757 mmHg 59%
    09:00 +16°C° 0 mm 7 mps 757 mmHg 55%
    10:00 +18°C° 0 mm 7 mps 756 mmHg 50%
    11:00 +20°C° 0 mm 7 mps 756 mmHg 46%
    12:00 +21°C° 0 mm 7 mps 756 mmHg 43%
    13:00 +22°C° 0 mm 7 mps 756 mmHg 41%
    14:00 +23°C° 0 mm 7 mps 755 mmHg 38%
    15:00 +23°C° 0 mm 6 mps 755 mmHg 39%
    16:00 +22°C° 0 mm 5 mps 755 mmHg 40%
    17:00 +22°C° 0 mm 4 mps 754 mmHg 41%
    18:00 +20°C° 0 mm 4 mps 755 mmHg 46%
    19:00 +19°C° 0 mm 3 mps 755 mmHg 50%
    20:00 +17°C° 0 mm 3 mps 755 mmHg 55%
    21:00 +16°C° 0 mm 3 mps 755 mmHg 57%
    22:00 +16°C° 0 mm 3 mps 755 mmHg 60%
    23:00 +14°C° 0 mm 3 mps 755 mmHg 62%

    23 September, Monday

    Time Temperature Precipitation Wind Pressure Humidity
    00:00 +14°C° 0 mm 3 mps 755 mmHg 64%
    01:00 +14°C° 0 mm 2 mps 756 mmHg 66%
    02:00 +14°C° 0 mm 2 mps 756 mmHg 68%
    03:00 +14°C° 0 mm 2 mps 756 mmHg 71%
    04:00 +13°C° 0 mm 2 mps 756 mmHg 73%
    05:00 +13°C° 0 mm 1 mps 756 mmHg 76%
    06:00 +14°C° 0 mm 1 mps 756 mmHg 71%
    07:00 +16°C° 0 mm 1 mps 756 mmHg 66%
    08:00 +18°C° 0 mm 1 mps 756 mmHg 61%
    09:00 +20°C° 0 mm 1 mps 756 mmHg 55%
    10:00 +21°C° 0 mm 2 mps 756 mmHg 49%
    11:00 +23°C° 0 mm 2 mps 756 mmHg 44%
    12:00 +24°C° 0 mm 2 mps 756 mmHg 39%
    13:00 +25°C° 0 mm 3 mps 755 mmHg 35%
    14:00 +26°C° 0 mm 3 mps 754 mmHg 31%
    15:00 +25°C° 0 mm 3 mps 754 mmHg 31%
    16:00 +25°C° 0 mm 3 mps 754 mmHg 32%
    17:00 +24°C° 0 mm 3 mps 754 mmHg 32%
    18:00 +21°C° 0 mm 4 mps 754 mmHg 42%
    19:00 +19°C° 0 mm 4 mps 754 mmHg 51%
    20:00 +18°C° 0 mm 4 mps 754 mmHg 61%
    21:00 +17°C° 0 mm 4 mps 753 mmHg 65%
    22:00 +17°C° 0 mm 3 mps 753 mmHg 69%
    23:00 +16°C° 0 mm 3 mps 753 mmHg 73%

    24 September, Tuesday

    Time Temperature Precipitation Wind Pressure Humidity
    00:00 +16°C° 0 mm 3 mps 753 mmHg 75%
    01:00 +16°C° 0 mm 3 mps 753 mmHg 77%
    02:00 +15°C° 0 mm 2 mps 753 mmHg 79%
    03:00 +15°C° 0 mm 2 mps 753 mmHg 79%
    04:00 +15°C° 0 mm 2 mps 753 mmHg 79%
    05:00 +15°C° 0 mm 2 mps 752 mmHg 79%
    06:00 +16°C° 0.1 mm 2 mps 752 mmHg 77%
    07:00 +17°C° 0.1 mm 3 mps 752 mmHg 75%
    08:00 +18°C° 0.1 mm 3 mps 752 mmHg 72%
    09:00 +18°C° 0.1 mm 4 mps 752 mmHg 72%
    10:00 +18°C° 0.1 mm 4 mps 752 mmHg 71%
    11:00 +18°C° 0.1 mm 4 mps 752 mmHg 70%
    12:00 +18°C° 0.2 mm 4 mps 752 mmHg 73%
    13:00 +18°C° 0.2 mm 3 mps 752 mmHg 75%
    14:00 +17°C° 0.2 mm 3 mps 751 mmHg 77%
    15:00 +17°C° 0.2 mm 3 mps 751 mmHg 79%
    16:00 +17°C° 0.2 mm 2 mps 751 mmHg 81%
    17:00 +17°C° 0.2 mm 2 mps 751 mmHg 83%
    18:00 +16°C° 0.3 mm 3 mps 751 mmHg 83%
    19:00 +16°C° 0.3 mm 3 mps 751 mmHg 84%
    20:00 +15°C° 0.3 mm 4 mps 751 mmHg 84%
    21:00 +16°C° 0 mm 3 mps 751 mmHg 82%
    22:00 +16°C° 0 mm 3 mps 751 mmHg 79%
    23:00 +16°C° 0 mm 3 mps 751 mmHg 77%

    25 September, Wednesday

    Time Temperature Precipitation Wind Pressure Humidity
    00:00 +16°C° 0 mm 2 mps 751 mmHg 76%
    01:00 +15°C° 0 mm 2 mps 751 mmHg 76%
    02:00 +15°C° 0 mm 2 mps 751 mmHg 75%
    03:00 +14°C° 0 mm 3 mps 751 mmHg 77%
    04:00 +14°C° 0 mm 3 mps 751 mmHg 78%
    05:00 +13°C° 0 mm 3 mps 751 mmHg 79%
    06:00 +14°C° 0 mm 3 mps 752 mmHg 75%
    07:00 +15°C° 0 mm 4 mps 752 mmHg 71%
    08:00 +17°C° 0 mm 4 mps 752 mmHg 67%
    09:00 +18°C° 0 mm 4 mps 752 mmHg 62%
    10:00 +20°C° 0 mm 4 mps 753 mmHg 57%
    11:00 +21°C° 0 mm 4 mps 753 mmHg 51%
    12:00 +21°C° 0 mm 3 mps 753 mmHg 50%
    13:00 +22°C° 0 mm 3 mps 753 mmHg 48%
    14:00 +22°C° 0 mm 3 mps 752 mmHg 46%
    15:00 +21°C° 0 mm 3 mps 752 mmHg 49%
    16:00 +21°C° 0 mm 2 mps 752 mmHg 52%
    17:00 +20°C° 0 mm 2 mps 752 mmHg 54%
    18:00 +19°C° 0 mm 2 mps 752 mmHg 59%
    19:00 +18°C° 0 mm 2 mps 752 mmHg 63%
    20:00 +17°C° 0 mm 2 mps 753 mmHg 68%
    21:00 +18°C° 0 mm 1 mps 753 mmHg 69%
    22:00 +16°C° 0 mm 1 mps 753 mmHg 71%
    23:00 +16°C° 0 mm 1 mps 753 mmHg 73%
    Show more